Location: Bergen
(60.3910°N, 5.3250°E)
Time: 08:52:51
(UTC+02:00)

ISS - Pass Details

Date: 28 March 2019
Orbit: 408 x 410 km, 51.6° (Epoch: 22 April)

Event Time Altitude Azimuth Distance (km) Brightness Sun altitude
Rises 20:54:17 0° 245° (WSW) 2,338 0.5 -12.6°
Reaches altitude 10° 20:56:47 10° 226° (SW) 1,476 -0.8 -12.9°
Maximum altitude 20:59:09 18° 180° (S) 1,071 -2.0 -13.1°
Enters shadow 20:59:49 17° 164° (SSE) 1,107 -2.0 -13.2°
